Miles City, MT

4:11 AM MDT on March 28, 2017 (GMT -0600)
Wiley

Weather History for KMLS - March, 2014

Change the Weather History Date:

Sunday, March 23, 2014

  Actual Average Record
Temperature  
Mean Temperature 22 °F 37 °F  
Max Temperature 29 °F 49 °F 78 °F (1993)
Min Temperature 14 °F 26 °F -7 °F (1964)
Degree Days  
Heating Degree Days 43 28  
Month to date heating degree days 797 735  
Since 1 July heating degree days 6836 6469  
Cooling Degree Days 0 0  
Month to date cooling degree days 0 0  
Year to date cooling degree days 0 0  
Moisture  
Dew Point 18 °F    
Average Humidity 76    
Maximum Humidity 88    
Minimum Humidity 63    
Precipitation  
Precipitation T in 0.03 in 0.28 in (1996)
Month to date precipitation 0.62 0.39  
Year to date precipitation 0.87 0.94  
Sea Level Pressure  
Sea Level Pressure 30.25 in    
Wind  
Wind Speed 9 mph (NNE)    
Max Wind Speed 17 mph    
Max Gust Speed 21 mph    
Visibility 6 miles    
Events Snow    
T = Trace of Precipitation, MM = Missing Value Source: NWS Daily Summary

Daily Weather History Graph

Daily Weather History Graph

Search for Another Location

Airport or City:

Trip Planner

Search our weather history database for the weather conditions in past years. The results will help you decide how hot, cold, wet, or windy it might be!

Date:

Astronomy

Mar. 23, 2014 Rise Set
Actual Time 7:00 AM MDT 7:20 PM MDT
Civil Twilight 6:30 AM MDT 7:50 PM MDT
Nautical Twilight 5:55 AM MDT 8:26 PM MDT
Astronomical Twilight 5:18 AM MDT 9:02 PM MDT
Moon 1:56 AM MDT (3/23) 11:27 AM MDT (3/23)
Length of Visible Light 13h 20m
Length of Day
12h 19m
Waning Gibbous, 54% of the Moon is Illuminated
Mar 23
Waning Gibbous
Mar 23
Last Quarter
Mar 30
New
Apr 7
First Quarter
Apr 15
Full

Hourly Weather History & Observations

Time (MDT) Temp. Windchill Dew Point Humidity Pressure Visibility Wind Dir Wind Speed Gust Speed Precip Events Conditions
12:53 AM 14.0 °F 6.5 °F 8.1 °F 77% 30.47 in 10.0 mi SSE 4.6 mph - N/A   Scattered Clouds
1:53 AM 15.1 °F 6.4 °F 9.0 °F 77% 30.43 in 10.0 mi ESE 5.8 mph - N/A   Mostly Cloudy
2:53 AM 16.0 °F 5.3 °F 8.1 °F 71% 30.40 in 10.0 mi ESE 8.1 mph - N/A   Scattered Clouds
3:53 AM 16.0 °F 5.3 °F 9.0 °F 74% 30.37 in 10.0 mi ESE 8.1 mph - N/A   Overcast
4:53 AM 15.1 °F 7.7 °F 10.0 °F 80% 30.34 in 10.0 mi NE 4.6 mph - N/A   Mostly Cloudy
5:53 AM 16.0 °F 7.4 °F 10.9 °F 81% 30.31 in 10.0 mi NE 5.8 mph - N/A   Overcast
6:53 AM 17.1 °F 7.6 °F 12.0 °F 81% 30.28 in 10.0 mi ENE 6.9 mph - N/A   Overcast
7:53 AM 19.0 °F 12.3 °F 12.9 °F 77% 30.28 in 10.0 mi ENE 4.6 mph - N/A   Overcast
8:53 AM 19.0 °F 10.0 °F 14.0 °F 81% 30.28 in 3.0 mi NE 6.9 mph - 0.00 in Snow Light Snow
9:01 AM 19.0 °F 8.2 °F 14.0 °F 81% 30.15 in 2.5 mi NNE 9.2 mph - 0.00 in Snow Light Snow
9:16 AM 19.0 °F 8.2 °F 15.1 °F 85% 30.15 in 1.5 mi NE 9.2 mph - 0.00 in Snow Light Snow
9:27 AM 19.0 °F 7.5 °F 15.1 °F 85% 30.14 in 2.5 mi NE 10.4 mph - 0.00 in Snow Light Snow
9:45 AM 19.9 °F 9.3 °F 16.0 °F 85% 30.14 in 1.5 mi ENE 9.2 mph - 0.00 in Snow Light Snow
9:53 AM 19.9 °F 7.9 °F 16.0 °F 85% 30.27 in 2.0 mi NE 11.5 mph - 0.00 in Snow Light Snow
10:22 AM 21.0 °F 9.3 °F 17.1 °F 85% 30.14 in 4.0 mi NE 11.5 mph - 0.00 in Snow Light Snow
10:53 AM 23.0 °F 13.9 °F 19.0 °F 85% 30.26 in 3.0 mi NNE 8.1 mph - 0.00 in Snow Light Snow
11:04 AM 24.1 °F 14.4 °F 19.0 °F 81% 30.14 in 2.5 mi NNE 9.2 mph - 0.00 in Snow Light Snow
11:12 AM 24.1 °F 14.4 °F 19.0 °F 81% 30.14 in 2.5 mi NE 9.2 mph - 0.00 in Snow Light Snow
11:26 AM 25.0 °F 14.8 °F 19.9 °F 81% 30.14 in 3.0 mi NE 10.4 mph - 0.00 in Snow Light Snow
11:37 AM 25.0 °F 14.2 °F 19.9 °F 81% 30.14 in 4.0 mi NNE 11.5 mph - 0.00 in Snow Light Snow
11:53 AM 25.0 °F 13.6 °F 21.0 °F 85% 30.26 in 3.0 mi NNE 12.7 mph - 0.00 in Snow Light Snow
12:00 PM 25.0 °F 13.1 °F 21.0 °F 85% 30.14 in 2.5 mi NNE 13.8 mph - 0.00 in Snow Light Snow
12:38 PM 25.0 °F 15.5 °F 21.0 °F 85% 30.14 in 2.5 mi NNE 9.2 mph - 0.00 in Snow Light Snow
12:53 PM 26.1 °F 16.8 °F 21.9 °F 84% 30.26 in 2.0 mi NNE 9.2 mph - 0.00 in Snow Light Snow
12:59 PM 26.1 °F 16.8 °F 21.9 °F 84% 30.14 in 1.8 mi NNE 9.2 mph - 0.00 in Snow Light Snow
1:06 PM 26.1 °F 16.2 °F 21.9 °F 84% 30.14 in 1.8 mi NNE 10.4 mph - 0.00 in Snow Light Snow
1:28 PM 27.0 °F 16.7 °F 21.9 °F 81% 30.15 in 2.5 mi North 11.5 mph - 0.00 in Snow Light Snow
1:31 PM 26.1 °F 15.6 °F 21.9 °F 84% 30.15 in 3.0 mi North 11.5 mph - 0.00 in Snow Light Snow
1:53 PM 27.0 °F 17.3 °F 21.9 °F 81% 30.27 in 6.0 mi North 10.4 mph - 0.00 in   Haze
2:00 PM 27.0 °F 16.7 °F 21.9 °F 81% 30.15 in 8.0 mi North 11.5 mph - N/A   Overcast
2:53 PM 28.0 °F 18.6 °F 21.9 °F 78% 30.26 in 10.0 mi North 10.4 mph - N/A   Overcast
3:53 PM 27.0 °F 19.5 °F 21.0 °F 78% 30.29 in 9.0 mi NW 6.9 mph - 0.00 in Snow Light Snow
4:30 PM 28.0 °F 20.8 °F 21.0 °F 75% 30.18 in 9.0 mi NNW 6.9 mph - 0.00 in   Overcast
4:49 PM 28.4 °F 20.4 °F 21.2 °F 74% 30.19 in 10.0 mi NNW 8.1 mph - 0.00 in   Overcast
4:53 PM 28.9 °F 21.1 °F 21.0 °F 72% 30.30 in 10.0 mi NW 8.1 mph - 0.00 in   Overcast
5:53 PM 28.0 °F 17.5 °F 21.9 °F 78% 30.32 in 10.0 mi NW 12.7 mph - N/A   Overcast
6:19 PM 28.0 °F 16.5 °F 21.0 °F 75% 30.22 in 10.0 mi NW 15.0 mph - N/A   Overcast
6:40 PM 28.0 °F 15.7 °F 19.9 °F 72% 30.23 in 10.0 mi NW 17.3 mph - N/A   Overcast
6:53 PM 27.0 °F 14.7 °F 19.9 °F 75% 30.35 in 10.0 mi NNW 16.1 mph - N/A   Overcast
7:53 PM 27.0 °F 15.6 °F 18.0 °F 69% 30.36 in 10.0 mi NNW 13.8 mph - N/A   Overcast
8:53 PM 26.1 °F 17.6 °F 18.0 °F 71% 30.38 in 10.0 mi NNW 8.1 mph - N/A   Overcast
9:53 PM 26.1 °F 16.2 °F 18.0 °F 71% 30.40 in 10.0 mi NW 10.4 mph - N/A   Overcast
10:53 PM 26.1 °F 19.4 °F 16.0 °F 66% 30.38 in 10.0 mi NW 5.8 mph - N/A   Overcast
11:53 PM 25.0 °F 17.1 °F 16.0 °F 69% 30.39 in 10.0 mi NW 6.9 mph - N/A   Overcast